When you browse on this site, cookies collect data to enhance your experience and personalize the content and advertising you see.
Visit our Privacy Policy to learn more. By continuing to use the site, you agree to this use of cookies and data.
  • în România
  • Lista ţărilor
  • Pe 7 zile
  • Temperatura apei
  • Hartă satelitară
  • Meteo pe hartă
  • Widget-uri
  • user-avatar
    Intrare

    Meteo pe oră la Saint-Jean-de-Braye

    Astăzi, 20 Iunie, Joi

    Timp Temperatura Precipitaţii Vânt Presiune Umiditate
    00:00 +15°C° 0 mm 4 m/s 751 mmHg 94%
    01:00 +15°C° 0 mm 4 m/s 751 mmHg 95%
    02:00 +14°C° 0 mm 3 m/s 751 mmHg 96%
    03:00 +14°C° 0 mm 3 m/s 751 mmHg 96%
    04:00 +14°C° 0 mm 3 m/s 752 mmHg 95%
    05:00 +16°C° 0 mm 3 m/s 752 mmHg 94%
    06:00 +16°C° 0 mm 3 m/s 752 mmHg 93%
    07:00 +16°C° 0.2 mm 3 m/s 753 mmHg 91%
    08:00 +16°C° 0.2 mm 3 m/s 753 mmHg 89%
    09:00 +16°C° 0.2 mm 2 m/s 753 mmHg 87%
    10:00 +18°C° 0 mm 3 m/s 753 mmHg 78%
    11:00 +20°C° 0 mm 3 m/s 753 mmHg 69%
    12:00 +21°C° 0 mm 3 m/s 754 mmHg 60%
    13:00 +21°C° 0 mm 3 m/s 753 mmHg 60%
    14:00 +21°C° 0 mm 3 m/s 753 mmHg 59%
    15:00 +21°C° 0 mm 4 m/s 753 mmHg 59%
    16:00 +21°C° 0 mm 3 m/s 753 mmHg 62%
    17:00 +20°C° 0 mm 2 m/s 754 mmHg 65%
    18:00 +20°C° 0 mm 2 m/s 754 mmHg 67%
    19:00 +18°C° 0 mm 2 m/s 754 mmHg 71%
    20:00 +18°C° 0 mm 1 m/s 754 mmHg 75%
    21:00 +15°C° 0 mm 1 m/s 755 mmHg 78%
    22:00 +15°C° 0 mm 2 m/s 755 mmHg 81%
    23:00 +14°C° 0 mm 2 m/s 755 mmHg 83%

    Mâine, 21 Iunie, Vineri

    Timp Temperatura Precipitaţii Vânt Presiune Umiditate
    00:00 +13°C° 0 mm 2 m/s 755 mmHg 86%
    01:00 +13°C° 0 mm 2 m/s 755 mmHg 87%
    02:00 +12°C° 0 mm 2 m/s 755 mmHg 88%
    03:00 +12°C° 0 mm 2 m/s 755 mmHg 90%
    04:00 +13°C° 0 mm 2 m/s 756 mmHg 88%
    05:00 +13°C° 0 mm 2 m/s 756 mmHg 86%
    06:00 +14°C° 0 mm 2 m/s 756 mmHg 84%
    07:00 +16°C° 0 mm 2 m/s 756 mmHg 78%
    08:00 +18°C° 0 mm 2 m/s 756 mmHg 72%
    09:00 +19°C° 0 mm 2 m/s 757 mmHg 66%
    10:00 +20°C° 0.1 mm 3 m/s 757 mmHg 64%
    11:00 +20°C° 0.1 mm 3 m/s 756 mmHg 61%
    12:00 +21°C° 0.1 mm 3 m/s 756 mmHg 59%
    13:00 +21°C° 0.1 mm 3 m/s 756 mmHg 60%
    14:00 +21°C° 0.1 mm 3 m/s 756 mmHg 61%
    15:00 +21°C° 0.1 mm 3 m/s 756 mmHg 62%
    16:00 +20°C° 0.1 mm 3 m/s 756 mmHg 65%
    17:00 +20°C° 0.1 mm 3 m/s 756 mmHg 69%
    18:00 +19°C° 0.1 mm 3 m/s 756 mmHg 72%
    19:00 +18°C° 0 mm 3 m/s 756 mmHg 75%
    20:00 +17°C° 0 mm 3 m/s 756 mmHg 78%
    21:00 +16°C° 0 mm 3 m/s 757 mmHg 81%
    22:00 +14°C° 0.1 mm 3 m/s 757 mmHg 83%
    23:00 +14°C° 0.1 mm 3 m/s 757 mmHg 84%

    Poimâine, 22 Iunie, Sâmbătă

    Timp Temperatura Precipitaţii Vânt Presiune Umiditate
    00:00 +13°C° 0.1 mm 3 m/s 757 mmHg 86%
    01:00 +13°C° 0 mm 3 m/s 757 mmHg 84%
    02:00 +14°C° 0 mm 2 m/s 756 mmHg 82%
    03:00 +13°C° 0 mm 2 m/s 756 mmHg 80%
    04:00 +14°C° 0 mm 2 m/s 756 mmHg 80%
    05:00 +14°C° 0 mm 2 m/s 756 mmHg 80%
    06:00 +14°C° 0 mm 2 m/s 756 mmHg 80%
    07:00 +15°C° 0 mm 2 m/s 756 mmHg 79%
    08:00 +16°C° 0 mm 2 m/s 756 mmHg 78%
    09:00 +17°C° 0 mm 2 m/s 756 mmHg 77%
    10:00 +18°C° 0 mm 2 m/s 756 mmHg 72%
    11:00 +20°C° 0 mm 2 m/s 756 mmHg 66%
    12:00 +23°C° 0 mm 2 m/s 755 mmHg 61%
    13:00 +24°C° 0 mm 3 m/s 755 mmHg 61%
    14:00 +24°C° 0 mm 3 m/s 755 mmHg 61%
    15:00 +25°C° 0 mm 3 m/s 754 mmHg 61%
    16:00 +24°C° 0.1 mm 3 m/s 754 mmHg 66%
    17:00 +24°C° 0.1 mm 3 m/s 754 mmHg 71%
    18:00 +22°C° 0.1 mm 3 m/s 754 mmHg 76%
    19:00 +21°C° 0 mm 2 m/s 754 mmHg 81%
    20:00 +19°C° 0 mm 2 m/s 754 mmHg 85%
    21:00 +18°C° 0 mm 2 m/s 755 mmHg 90%
    22:00 +18°C° 0 mm 2 m/s 754 mmHg 91%
    23:00 +17°C° 0 mm 2 m/s 754 mmHg 92%

    23 Iunie, Duminică

    Timp Temperatura Precipitaţii Vânt Presiune Umiditate
    00:00 +17°C° 0 mm 2 m/s 754 mmHg 92%
    01:00 +16°C° 0 mm 2 m/s 754 mmHg 93%
    02:00 +16°C° 0 mm 1 m/s 754 mmHg 94%
    03:00 +16°C° 0 mm 1 m/s 754 mmHg 94%
    04:00 +16°C° 0 mm 1 m/s 754 mmHg 93%
    05:00 +17°C° 0 mm 2 m/s 754 mmHg 92%
    06:00 +18°C° 0 mm 2 m/s 754 mmHg 90%
    07:00 +19°C° 0 mm 2 m/s 754 mmHg 84%
    08:00 +21°C° 0 mm 2 m/s 754 mmHg 78%
    09:00 +24°C° 0 mm 3 m/s 754 mmHg 72%
    10:00 +25°C° 0 mm 3 m/s 754 mmHg 68%
    11:00 +26°C° 0 mm 3 m/s 754 mmHg 63%
    12:00 +27°C° 0 mm 3 m/s 754 mmHg 58%
    13:00 +27°C° 0 mm 3 m/s 753 mmHg 58%
    14:00 +28°C° 0 mm 3 m/s 753 mmHg 58%
    15:00 +28°C° 0 mm 3 m/s 753 mmHg 57%
    16:00 +28°C° 0 mm 3 m/s 753 mmHg 63%
    17:00 +27°C° 0 mm 3 m/s 752 mmHg 68%
    18:00 +26°C° 0 mm 3 m/s 752 mmHg 73%
    19:00 +25°C° 0 mm 3 m/s 753 mmHg 79%
    20:00 +24°C° 0 mm 3 m/s 753 mmHg 84%
    21:00 +21°C° 0 mm 3 m/s 753 mmHg 90%
    22:00 +21°C° 0 mm 2 m/s 753 mmHg 91%
    23:00 +20°C° 0 mm 2 m/s 753 mmHg 91%

    24 Iunie, Luni

    Timp Temperatura Precipitaţii Vânt Presiune Umiditate
    00:00 +19°C° 0 mm 2 m/s 753 mmHg 92%
    01:00 +19°C° 0 mm 2 m/s 753 mmHg 91%
    02:00 +19°C° 0 mm 2 m/s 753 mmHg 90%
    03:00 +18°C° 0 mm 2 m/s 753 mmHg 88%
    04:00 +19°C° 0 mm 2 m/s 753 mmHg 86%
    05:00 +20°C° 0 mm 2 m/s 753 mmHg 84%
    06:00 +21°C° 0 mm 2 m/s 753 mmHg 82%
    07:00 +24°C° 0 mm 2 m/s 753 mmHg 76%
    08:00 +26°C° 0 mm 2 m/s 753 mmHg 69%
    09:00 +28°C° 0 mm 2 m/s 753 mmHg 63%
    10:00 +30°C° 0 mm 3 m/s 753 mmHg 60%
    11:00 +31°C° 0 mm 3 m/s 753 mmHg 56%
    12:00 +33°C° 0 mm 4 m/s 753 mmHg 53%
    13:00 +34°C° 0 mm 4 m/s 753 mmHg 52%
    14:00 +34°C° 0 mm 4 m/s 753 mmHg 52%
    15:00 +35°C° 0 mm 4 m/s 752 mmHg 51%
    16:00 +34°C° 0 mm 3 m/s 752 mmHg 57%
    17:00 +33°C° 0 mm 3 m/s 752 mmHg 63%
    18:00 +31°C° 0 mm 3 m/s 752 mmHg 69%
    19:00 +29°C° 0 mm 3 m/s 752 mmHg 74%
    20:00 +28°C° 0 mm 3 m/s 752 mmHg 79%
    21:00 +26°C° 0 mm 3 m/s 753 mmHg 85%
    22:00 +25°C° 0 mm 2 m/s 753 mmHg 85%
    23:00 +24°C° 0 mm 2 m/s 753 mmHg 84%

    25 Iunie, Marţi

    Timp Temperatura Precipitaţii Vânt Presiune Umiditate
    00:00 +24°C° 0 mm 2 m/s 752 mmHg 84%
    01:00 +23°C° 0 mm 2 m/s 752 mmHg 84%
    02:00 +23°C° 0 mm 1 m/s 752 mmHg 84%
    03:00 +22°C° 0 mm 1 m/s 752 mmHg 84%
    04:00 +23°C° 0 mm 1 m/s 753 mmHg 84%
    05:00 +24°C° 0 mm 2 m/s 753 mmHg 85%
    06:00 +25°C° 0 mm 2 m/s 754 mmHg 85%
    07:00 +26°C° 0 mm 2 m/s 754 mmHg 76%
    08:00 +28°C° 0 mm 3 m/s 754 mmHg 67%
    09:00 +30°C° 0 mm 3 m/s 755 mmHg 58%
    10:00 +31°C° 0 mm 2 m/s 755 mmHg 52%
    11:00 +32°C° 0 mm 2 m/s 755 mmHg 47%
    12:00 +34°C° 0 mm 2 m/s 755 mmHg 42%
    13:00 +34°C° 0 mm 2 m/s 755 mmHg 42%
    14:00 +34°C° 0 mm 2 m/s 755 mmHg 42%
    15:00 +35°C° 0 mm 2 m/s 755 mmHg 43%
    16:00 +34°C° 0 mm 2 m/s 755 mmHg 49%
    17:00 +32°C° 0 mm 1 m/s 755 mmHg 56%
    18:00 +31°C° 0 mm 1 m/s 755 mmHg 62%
    19:00 +29°C° 0 mm 1 m/s 755 mmHg 66%
    20:00 +28°C° 0 mm 1 m/s 756 mmHg 70%
    21:00 +26°C° 0 mm 2 m/s 756 mmHg 73%
    22:00 +26°C° 0 mm 2 m/s 756 mmHg 76%
    23:00 +25°C° 0 mm 2 m/s 756 mmHg 78%
    Arată mai mult